Preview of NWS' New Version of Forecast
This preview is not operational and should not be used for support decisions.

Regional Weather Roundup (RWR)

Issued by National Weather Service (NWS)

                            
000
ASUS43 KLSX 212357
RWRMO 

WEATHER SUMMARY FOR MISSOURI
NATIONAL WEATHER SERVICE SPRINGFIELD MO
700 PM CDT SAT SEP 21 2019

NOTE: "FAIR" INDICATES FEW OR NO CLOUDS BELOW 12,000 FEET WITH NO
       SIGNIFICANT WEATHER AND/OR OBSTRUCTIONS TO VISIBILITY.
       CURRENT SKY AND/OR WEATHER CONDITIONS ARE NOT AVAILABLE FOR
       CHILLICOTHE AND FARMINGTON.

MOZ001>031-035>038-043-044-053-054-220100-
...NORTHERN AND WESTERN MISSOURI...
  
CITY           SKY/WX    TMP DP  RH WIND       PRES   REMARKS
KANSAS CTY INT MOCLDY    74  70  87 S12       29.93S                  
6HR MIN TEMP:  73; 6HR MAX TEMP:  75; 6HR PCP:  0.01;                

LEE'S SUMMIT   PTCLDY    74  69  85 S12G22    29.95F                  
6HR MIN TEMP:  74; 6HR MAX TEMP:  76; 6HR PCP:  0.09;                

ST JOSEPH      PTCLDY    75  69  81 S13       29.91S                  
6HR MIN TEMP:  75; 6HR MAX TEMP:  78; 6HR PCP: TRACE;                

CHILLICOTHE      N/A     75  71  87 S9G18     29.95S                  
6HR MIN TEMP:  74; 6HR MAX TEMP:  77; 6HR PCP:  0.20;                

     
$$
MOZ066>068-077>081-088>096-101>105-220100-
...SOUTHWEST MISSOURI...
  
CITY           SKY/WX    TMP DP  RH WIND       PRES   REMARKS
SPRINGFIELD    CLEAR     82  66  58 S13       30.03S                  
6HR MIN TEMP:  82; 6HR MAX TEMP:  88;                                

JOPLIN         CLEAR     80  68  66 S10       30.00F                  
6HR MIN TEMP:  74; 6HR MAX TEMP:  85; 6HR PCP: TRACE;                

BRANSON        MOCLDY    79  66  65 SE9       30.08S                  
               
$$
MOZ032>034-039>042-045>050-055>058-069>072-220100-
...CENTRAL MISSOURI...  
  
CITY           SKY/WX    TMP DP  RH WIND       PRES   REMARKS
COLUMBIA       NOT AVBL                                               
JEFFERSON CITY CLOUDY    77  71  82 NE3       30.00S                  
6HR MIN TEMP:  77; 6HR MAX TEMP:  82; 6HR PCP:  0.15;                

SEDALIA        CLEAR     71  71 100 S10       29.99F                  
6HR MIN TEMP:  71; 6HR MAX TEMP:  78; 6HR PCP:  0.02;                

WARRENSBURG    PTCLDY    72  68  88 S8        29.95F                  
               
$$
MOZ051-052-059>065-220100-
...EAST CENTRAL MISSOURI...
  
CITY           SKY/WX    TMP DP  RH WIND       PRES   REMARKS
ST LOUIS INTL  MOCLDY    82  67  60 S12       30.05S                  
6HR MIN TEMP:  76; 6HR MAX TEMP:  84; 6HR PCP: TRACE;                

                   
$$
MOZ072>076-082>087-097>100-106>115-220100-
...SOUTH CENTRAL AND SOUTHEAST MISSOURI...
  
CITY           SKY/WX    TMP DP  RH WIND       PRES   REMARKS
CAPE GIRARDEAU NOT AVBL                                               
POPLAR BLUFF   FAIR      80  66  62 S5        30.08S                  
6HR MIN TEMP:  80; 6HR MAX TEMP:  87;                                

WEST PLAINS    PTCLDY    79  66  64 S7        30.10R                  
6HR MIN TEMP:  79; 6HR MAX TEMP:  84; 6HR PCP:  0.02;                

                                       
$$